663  
ASUS42 KRAH 240510  
RWRRAH  
NORTH CAROLINA WEATHER ROUNDUP  
NATIONAL WEATHER SERVICE RALEIGH NC  
100 AM EDT FRI SEP 24 2021  
 
NOTE: "FAIR" INDICATES FEW OR NO CLOUDS BELOW 12,000 FEET WITH NO  
SIGNIFICANT WEATHER AND/OR S TO VISIBILITY
.  
 
NCZ001-053-055-056-065-067-240600-  
WESTERN NORTH CAROLINA  
 
CITY SKY/WX TMP DP RH WIND PRES REMARKS
 
ASHEVILLE CLEAR 47 45 93 NW8 30.13S  
JEFFERSON CLEAR 47 39 74 CALM 30.11S  
MORGANTON CLEAR 47 46 95 CALM 30.13S  
HICKORY CLEAR 53 47 79 W6 30.08F  
WILKESBORO NOT AVBL  
RUTHERFORDTON CLEAR 52 46 82 NW6 30.10F  
MOUNT AIRY CLEAR 49 47 92 CALM 30.10F  
BOONE N/A 44 41 89 CALM 30.13S  

 
 
NCZ021-022-025-041-071-084-088-240600-  
CENTRAL NORTH CAROLINA  
 
CITY SKY/WX TMP DP RH WIND PRES REMARKS
 
CHARLOTTE CLEAR 56 48 74 NW7 30.07S  
GREENSBORO CLEAR 55 48 77 N5 30.05S  
WINSTON-SALEM CLEAR 53 47 79 CALM 30.07F  
RALEIGH-DURHAM CLEAR 56 51 84 CALM 30.04S  
FORT BRAGG CLEAR 58 53 82 N5 30.01R  
FAYETTEVILLE CLEAR 59 52 77 N5 30.01S  
BURLINGTON CLEAR 50 48 93 N3 30.04S  
ROXBORO CLEAR 46 46 100 CALM 30.06F  
HENDERSON CLEAR 52 46 81 CALM 30.03F  
LOUISBURG CLEAR 52 50 93 CALM 30.05F  
LAURINBURG CLEAR 60 52 74 N6 30.03R  

 
 
NCZ011-015-027-028-043-044-047-080-103-240600-  
NORTHEASTERN NORTH CAROLINA  
 
CITY SKY/WX TMP DP RH WIND PRES REMARKS
 
ROCKY MT-WILSO CLEAR 60 52 74 N5 30.01F  
GREENVILLE CLEAR 59 55 88 CALM 30.02S  
WASHINGTON PTCLDY 61 56 82 NW5 30.00S  
ELIZABETH CITY CLOUDY 67 65 93 NW6 29.97F  
MANTEO CLOUDY 68 65 90 NE7 29.96F  
CAPE HATTERAS MOCLDY 71 69 93 NE5G17 29.93F  

 
 
NCZ078-087-090-091-093-098-101-240600-  
SOUTHEASTERN NORTH CAROLINA  
 
CITY SKY/WX TMP DP RH WIND PRES REMARKS
 
GOLDSBORO CLEAR 62 51 68 N6 29.98F  
KINSTON CLEAR 60 55 83 N5 30.01S  
KENANSVILLE CLEAR 57 55 94 MISG 30.01S  
NEW BERN CLEAR 65 59 81 N9 29.99R  
CHERRY POINT NOT AVBL  
BEAUFORT CLOUDY 70 66 87 N10 29.95S  
JACKSONVILLE CLEAR 64 58 80 N9 29.98R  
WILMINGTON CLEAR 64 58 80 N9 29.99R  

 
 
 
 
CLICK HERE TO GO TO PREVIOUS BULLETINS.

The Nexlab NC Page Main Text Page